Wind_Speed
22 17 13 9 7 6 6 6 7 9 12 15 15 16 17 18 19 19 21 23 24 26
20 16 13 9 7 6 5 6 9 11 13 15 16 16 17 18 19 20 21 23 22 22
19 15 11 8 6 5 5 6 9 12 13 14 16 16 17 18 19 21 20 19 23 26
19 14 10 7 5 4 5 8 10 11 13 15 16 16 18 19 19 18 22 22 24 25
17 13 10 7 5 5 6 7 9 11 13 14 16 17 18 20 20 21 23 25 27 28
16 13 10 7 5 5 5 7 9 11 13 15 17 19 19 20 20 22 24 27 29 30
16 13 9 6 3 3 6 8 9 11 13 15 18 19 19 19 23 24 24 26 26 28
15 11 7 4 1 3 5 7 9 12 14 16 17 18 18 21 21 21 22 22 26 27
13 10 6 2 1 3 6 8 10 12 15 17 18 18 18 20 20 20 25 27 30 30
12 8 4 1 2 4 7 9 11 14 16 17 19 18 19 19 20 21 25 29 29 29
11 7 4 2 3 6 8 11 13 15 16 18 20 17 17 19 20 23 27 28 29 29
9 7 4 3 5 7 10 12 13 15 18 18 19 17 18 20 21 23 27 29 29 28
9 6 4 4 6 8 9 11 13 15 15 16 18 18 18 20 19 20 24 24 27 24
8 7 6 5 6 7 9 10 13 15 16 17 18 21 19 20 22 22 24 25 22 27
Wind_Direction
189 191 195 204 223 255 280 298 308 312 315 319 322 321 320 319 318 317 313 312 309 306
186 190 192 204 230 253 275 294 303 311 316 320 319 319 320 317 317 317 315 313 310 307
184 190 195 209 227 247 271 288 304 312 317 318 318 320 319 317 317 315 314 311 307 307
180 189 197 207 219 239 269 293 309 316 317 317 318 319 317 317 317 309 310 311 307 302
180 185 193 199 208 246 281 303 315 316 315 317 318 318 317 315 312 309 307 306 304 302
176 182 188 196 224 265 296 313 319 318 318 321 319 318 317 313 310 306 305 303 307 304
174 181 187 197 233 289 314 320 325 325 324 321 319 318 317 313 308 305 303 310 307 302
171 176 179 188 245 312 327 334 333 327 326 323 321 321 315 312 307 303 308 306 305 305
167 167 167 168 319 337 346 344 338 336 329 326 325 318 316 312 312 311 311 309 310 315
159 157 149 127 6 4 357 348 346 338 333 328 325 321 318 315 312 308 310 312 309 308
154 144 134 89 26 10 360 354 344 339 337 328 328 328 325 319 315 314 317 318 316 311
147 138 124 71 31 17 359 350 348 341 334 336 336 332 328 324 323 316 317 317 315 310
138 128 102 64 35 12 357 351 345 340 341 342 339 340 331 328 327 315 311 309 306 309
128 113 89 59 29 10 2 352 346 345 349 351 346 333 332 333 332 324 314 309 319 316
Height
782 785 788 791 793 794 794 794 794 794 793 793 792 792 790 788 786 784 782 780 778 776
779 782 785 788 790 791 792 792 791 790 789 789 789 788 786 784 782 780 778 776 773 771
776 780 783 785 787 788 789 788 788 787 786 785 785 785 783 780 778 776 774 772 769 765
773 778 781 782 784 785 785 785 784 783 782 782 781 781 779 777 774 772 770 767 763 760
770 775 778 780 781 782 782 781 780 780 779 778 777 777 774 772 771 768 765 761 759 754
768 772 775 777 778 779 779 778 777 777 776 775 774 772 770 769 767 763 760 757 753 749
766 770 772 774 776 776 776 775 774 774 773 772 770 769 766 765 761 758 755 752 748 744
765 768 770 771 772 774 773 772 771 770 769 769 767 765 763 760 757 753 750 747 743 738
763 765 767 768 769 771 770 769 769 767 767 765 763 762 759 757 753 749 745 741 737 732
761 763 765 766 767 767 767 767 765 765 764 763 760 758 755 752 749 745 740 736 731 726
758 760 763 764 764 764 765 764 764 763 761 759 756 754 751 748 745 741 736 732 727 722
756 758 760 762 762 762 762 762 762 761 759 756 753 751 748 744 740 736 731 727 722 717
755 757 759 760 760 760 761 761 760 759 757 755 751 747 745 741 736 732 727 723 717 713
754 756 757 758 759 759 759 758 758 756 754 752 749 745 742 738 734 730 724 718 713 709